Regional Weather Roundup
Issued by NWS

Home | Current Version | Previous Version | Graphics & Text | Print | Product List | Glossary On
Versions: 1 2 3 4 5 6 7 8 9 10 11 12 13 14 15 16 17 18 19 20 21 22 23 24 25 26 27 28 29 30 31 32 33 34 35 36 37 38 39 40 41 42 43 44 45 46 47 48 49 50
000
ASUS45 KBOU 291607
RWRCO

WEATHER ROUNDUP FOR COLORADO
NATIONAL WEATHER SERVICE DENVER/BOULDER CO
1000 AM MDT SUN MAR 29 2015

NOTE: "FAIR" INDICATES FEW OR NO CLOUDS BELOW 12000 FEET WITH NO
SIGNIFICANT WEATHER AND/OR OBSTRUCTIONS TO VISIBILITY.

COZ001>005-013-030-031-291700-
...NORTHWEST COLORADO...

CITY           SKY/WX    TMP DP  RH WIND       PRES   REMARKS
CRAIG          SUNNY     46  22  38 CALM      30.36R
HAYDEN         SUNNY     45  18  33 CALM      30.36S
MEEKER         SUNNY     48  23  37 VRB3      30.36R
MOUNT WERNER   NOT AVBL
STEAMBOAT SPGS SUNNY     43  21  41 CALM      30.36S
WALDEN         SUNNY     37  16  41 S3        30.36S
$$

COZ006>008-011-291700-
...WEST CENTRAL VALLEYS...

CITY           SKY/WX    TMP DP  RH WIND       PRES   REMARKS
GRAND JUNCTION SUNNY     61  14  16 E9G18     30.27R
MONTROSE       SUNNY     58  20  22 N10       30.31R
EAGLE          SUNNY     48  18  29 W3        30.38F
RIFLE          SUNNY     52  17  25 CALM      30.33S
DELTA          SUNNY     59  25  27 CALM      30.28F
NUCLA          SUNNY     55  28  35 CALM      30.32S
$$

COZ017>023-064>068-291700-
...SOUTHWEST COLORADO...

CITY           SKY/WX    TMP DP  RH WIND       PRES   REMARKS
DURANGO        SUNNY     52  26  36 VRB5      30.30R
CORTEZ         SUNNY     58  24  27 VRB5      30.28R
PAGOSA SPRINGS SUNNY     56  20  25 CALM      30.34R
TELLURIDE      SUNNY     50  20  31 CALM      30.42S
WOLF CREEK PAS SUNNY     37  10  32 W8G17     30.53R
$$

COZ009-010-012-014-032>034-037-058>063-291700-
...CENTRAL COLORADO...

CITY           SKY/WX    TMP DP  RH WIND       PRES   REMARKS
ASPEN          SUNNY     49  14  24 VRB3      30.37R
BUENA VISTA    SUNNY     53   5  14 NW16G25   30.32R
COPPER MTN     SUNNY     32   9  37 SW9       30.47F WCI  24
BERTHOUD PASS  FAIR      25  18  74 W31G48    30.43R WCI   8
COTTONWOOD PAS SUNNY     46 -13   8 W8G26     30.38R
GUNNISON       SUNNY     50  27  40 CALM      30.39R
KREMMLING      SUNNY     50  14  23 SW5       30.37F
LEADVILLE      SUNNY     39   7  26 N14       30.41R
SALIDA         SUNNY     56  14  18 CALM      30.38R
SUNLIGHT       SUNNY     37   9  30 CALM      30.50S
WILKERSON PASS SUNNY     37   3  23 CALM      30.46R
$$

COZ069>075-291700-
...SAN LUIS VALLEY/SANGRE DE CRISTO MOUNTAINS...

CITY           SKY/WX    TMP DP  RH WIND       PRES   REMARKS
ALAMOSA        SUNNY     56  25  30 VRB6      30.33R
LA VETA PASS   SUNNY     39  27  60 NE10      30.43S
SAGUACHE       SUNNY     52  27  37 CALM      30.33S
$$

COZ035-036-038>040-291700-
...NORTHERN COLORADO FRONT RANGE...

CITY           SKY/WX    TMP DP  RH WIND       PRES   REMARKS
DENVER INTL AP SUNNY     50  20  30 NE18      30.33R
DMNS CITY PARK   N/A     49  20  31 E8        30.34S
AURORA         NOT AVBL
FRONT RANGE AP SUNNY     50  23  34 N10G20    30.35R
ERIE MUNI ARPT SUNNY     50  18  27 S7        30.33R
BOULDER MUN AP SUNNY     52  23  32 SE13G20   30.31R
CENTENNIAL     MOSUNNY   45  19  35 NE7       30.35R
BROOMFIELD     SUNNY     48  19  32 SE10G167  30.34R
FORT COLLINS   SUNNY     52  18  25 N9        30.31R
LONGMONT       SUNNY     54  21  27 SE12      30.33R
$$

COZ041-046-047-076>085-087-088-291700-
...PIKES PEAK/PALMER DIVIDE AND SOUTHERN FOOTHILLS...

CITY           SKY/WX    TMP DP  RH WIND       PRES   REMARKS
COLO. SPRINGS  SUNNY     50  17  27 N22       30.34R
A. F. ACADEMY  NOT AVBL
ELLICOTT       SUNNY    N/A N/A N/A NE23G33   30.32R
FALCON         SUNNY     44  16  32 N22G35    30.34R
FORT CARSON    NOT AVBL
LIMON          SUNNY     48  20  32 N22       30.32R
MONUMENT HILL  SUNNY     41  18  38 N14       30.35S
TRINIDAD       MOSUNNY   55  22  27 NE12      30.33R
$$

COZ042>045-048>051-090-091-291700-
...NORTHEAST COLORADO...

CITY           SKY/WX    TMP DP  RH WIND       PRES   REMARKS
GREELEY ARPT   SUNNY     55  19  24 N24G30    30.26F
AKRON          SUNNY     50  25  37 N28G38    30.29R
BURLINGTON     SUNNY     55  22  27 N24G33    30.26R
WRAY           SUNNY     55  25  31 N29G38    30.25R
STERLING       SUNNY     54  28  37 N23G35    30.26S
HOLYOKE        NOT AVBL
FORT MORGAN    SUNNY    N/A N/A N/A N22       30.31S
$$

COZ086-089-092>099-291700-
...SOUTHEAST COLORADO...

CITY           SKY/WX    TMP DP  RH WIND       PRES   REMARKS
PUEBLO         SUNNY     57  20  23 NE14      30.32R
LA JUNTA       SUNNY     58  17  20 N21G26    30.31R
LAMAR          PTSUNNY   60  20  21 N21       30.26R HAZE
SPRINGFIELD      N/A     57  24  28 N32G38    30.25R
$$


USA.gov is the U.S. government's official web portal to all federal, state and local government web resources and services.